Wind_Speed
41 42 42 40 37 37 35 31 28 27 27 29 30 33 35 37 39 43 45 47 50 52 54 57 61 64 67 69 71 73 76 79 82 83 82 84 86 89 91 95 98 100 100 101
42 42 41 39 37 35 34 28 25 25 28 32 35 36 40 44 46 49 51 52 55 58 62 64 66 69 72 75 77 78 80 82 84 85 86 89 92 92 92 95 97 99 102 103
44 42 38 36 35 34 31 27 27 29 32 34 38 38 45 51 52 53 56 60 63 67 69 71 73 73 73 75 78 81 84 86 88 90 91 92 94 94 95 96 96 97 99 99
46 40 35 32 33 32 28 27 29 32 35 38 41 49 46 54 55 59 63 65 67 71 75 76 76 77 78 79 80 81 83 85 88 90 93 94 97 97 97 99 99 99 101 101
46 37 30 31 29 28 27 29 32 35 38 42 44 48 52 57 61 61 64 69 71 69 69 73 77 79 80 82 85 89 91 90 90 90 91 92 95 98 99 101 101 102 103 103
45 34 31 28 28 29 30 31 33 37 41 44 48 52 60 59 64 68 72 70 69 72 76 79 81 82 82 83 85 87 88 89 89 88 87 88 89 92 96 99 100 104 104 106
41 36 32 30 29 30 31 33 36 40 42 48 52 57 62 65 69 72 70 71 75 77 80 83 81 78 77 75 76 77 78 77 78 79 80 81 82 85 88 91 95 97 102 103
42 35 33 32 31 32 33 36 40 43 49 55 58 61 66 70 73 71 73 76 78 80 83 83 82 76 74 72 73 75 75 75 77 76 73 73 74 75 77 79 82 86 91 96
42 34 33 32 33 34 36 40 44 48 52 57 62 64 66 70 68 72 74 76 80 81 82 79 73 69 68 68 67 66 69 71 74 75 73 72 71 71 72 73 73 74 77 81
39 32 32 33 34 35 37 42 45 50 56 59 64 69 71 69 70 72 76 80 81 82 76 68 65 63 61 60 62 66 69 70 71 72 73 73 73 72 68 66 66 68 71 75
39 33 33 32 35 37 42 46 50 56 59 64 64 71 69 71 75 78 82 83 84 76 71 67 65 63 63 63 60 55 51 50 49 51 54 56 58 60 61 61 62 61 64 68
37 35 34 33 36 41 46 49 55 57 62 65 66 65 67 71 76 81 85 86 80 75 73 69 71 67 61 51 45 41 40 36 34 35 37 40 42 44 46 47 48 50 51 55
35 33 32 34 38 42 45 48 54 58 61 64 64 67 70 73 79 85 85 81 75 73 70 69 60 50 41 35 34 35 32 29 27 27 27 28 30 32 34 34 37 40 43 47
29 29 32 35 38 43 47 52 55 56 58 60 63 65 69 77 85 86 82 75 72 73 71 55 42 33 28 28 30 30 29 28 27 28 27 27 28 30 33 34 37 39 42 46
30 32 35 37 42 47 51 52 53 53 58 59 62 66 72 76 82 81 77 70 69 68 57 41 34 30 28 27 29 29 30 28 28 31 33 32 31 33 33 34 36 37 40 41
34 35 38 41 42 45 52 53 54 56 55 58 62 68 76 77 81 80 73 69 70 64 48 36 33 28 27 29 33 35 35 35 36 38 38 38 38 39 38 39 39 37 37 38
34 34 37 40 44 50 52 52 50 52 54 57 62 69 71 77 76 80 72 68 68 57 40 35 35 32 32 34 38 42 44 44 44 44 45 44 44 44 43 41 40 37 35 33
34 38 38 43 47 50 50 49 49 53 56 57 64 69 73 75 74 76 72 67 61 43 35 35 34 35 38 43 47 50 50 51 50 50 48 47 45 42 41 38 37 33 29 28
36 35 39 44 48 51 49 49 51 52 56 59 66 69 73 71 72 71 69 67 47 31 30 31 33 39 45 50 53 53 53 51 49 45 43 40 41 35 33 32 30 26 21 19
39 42 45 46 47 49 49 50 51 52 52 58 63 68 72 70 70 64 65 59 40 33 33 36 43 48 52 56 56 51 47 44 40 34 30 28 29 26 25 25 21 15 13 9
44 47 50 49 47 48 49 51 50 54 56 61 68 70 70 72 71 62 63 48 37 32 36 42 49 52 53 49 44 40 36 30 28 24 21 22 22 20 19 14 8 6 4 4
47 50 53 50 48 49 51 50 52 56 58 63 67 70 70 72 66 61 64 42 36 38 43 50 54 52 46 40 37 32 27 22 19 17 16 16 16 17 15 8 2 4 6 10
49 51 53 50 48 48 49 50 52 55 59 64 67 72 71 71 62 59 60 41 38 42 48 52 52 46 40 36 31 25 19 13 8 6 4 7 15 20 16 11 10 12 14 20
50 53 51 49 50 49 52 53 56 59 62 63 68 72 71 69 61 59 56 41 42 47 54 53 46 38 35 28 25 20 15 8 6 6 11 16 24 22 19 18 18 19 23 29
49 50 48 50 52 52 54 56 58 61 62 64 69 72 70 65 60 60 53 45 48 54 52 42 35 32 26 23 20 15 13 10 12 17 22 26 26 24 24 24 24 25 33 38
47 47 49 51 53 55 57 58 60 62 63 67 71 70 68 62 58 60 52 47 52 51 43 33 28 24 21 20 18 17 15 18 23 26 27 28 27 26 27 26 28 33 43 47
Wind_Direction
316 310 304 299 297 297 296 294 292 292 291 292 288 289 291 293 293 292 291 290 288 286 283 281 280 280 278 276 273 271 268 265 262 260 259 259 259 259 258 258 257 256 255 255
318 309 304 300 296 294 294 294 292 290 289 291 295 296 297 295 296 294 293 292 291 291 289 287 284 282 281 278 273 270 269 269 269 267 263 261 258 257 258 258 258 257 256 256
320 311 302 296 295 293 290 291 291 291 293 294 295 296 301 299 298 298 296 293 292 291 289 288 286 283 279 277 275 273 270 267 265 264 264 264 262 260 260 258 258 259 258 257
320 313 303 298 292 291 287 289 289 291 294 297 299 301 304 299 298 296 295 296 295 293 292 292 290 288 284 281 277 273 270 270 268 265 263 262 261 260 261 260 260 260 260 259
321 313 303 296 288 284 284 287 290 293 296 299 300 301 302 302 300 300 300 298 296 295 294 294 292 288 284 281 279 279 278 276 273 269 266 262 259 259 259 259 257 258 259 260
318 310 299 290 285 284 284 288 291 294 296 298 301 303 303 303 301 303 302 300 299 296 296 296 295 291 287 283 280 277 275 275 274 270 267 265 262 260 258 255 256 255 256 256
314 304 298 296 288 287 285 289 291 293 297 298 302 304 306 304 305 304 304 302 300 299 299 300 299 296 293 290 286 283 280 277 275 273 271 267 264 262 261 259 257 257 256 256
314 302 299 294 290 285 283 287 290 294 297 302 305 306 305 306 307 305 304 302 303 302 300 300 299 295 291 287 285 283 281 281 281 279 276 274 270 267 265 262 261 260 260 258
311 302 297 293 289 287 287 291 293 298 301 304 305 306 300 304 305 305 303 302 302 301 300 300 296 293 290 287 285 285 284 281 279 278 276 273 270 267 265 264 264 262 261 260
310 300 295 293 290 288 287 291 295 300 301 302 305 305 307 308 308 305 303 304 307 308 306 303 298 296 294 294 292 289 284 279 274 273 273 274 275 273 270 267 264 261 261 261
307 303 298 296 297 296 294 297 300 301 303 305 306 306 309 311 309 308 310 312 312 314 310 308 308 305 301 297 293 287 283 282 281 277 274 273 273 273 273 272 269 266 263 262
302 302 301 302 301 298 297 299 299 300 305 305 306 308 309 310 310 312 316 317 319 316 315 316 310 302 298 294 288 287 288 287 285 282 278 277 275 275 275 275 274 273 271 269
303 303 304 307 305 301 299 301 302 305 307 309 311 312 313 313 315 318 319 322 321 316 316 313 307 304 297 293 289 287 291 289 287 283 281 279 281 279 281 280 278 276 276 276
306 309 309 309 308 307 305 304 305 308 310 312 313 316 320 321 322 321 322 323 319 318 318 315 313 308 303 293 290 293 295 296 293 287 280 276 276 279 278 278 280 281 281 280
303 307 307 308 307 305 306 308 309 311 312 316 319 320 323 324 322 320 322 322 318 320 318 314 320 315 306 295 293 291 293 291 287 284 284 284 282 280 279 281 279 281 283 284
310 313 312 310 311 313 313 313 312 313 318 321 322 324 325 326 323 319 323 323 321 322 317 321 323 313 305 305 303 301 300 300 297 293 288 286 285 284 285 284 284 287 290 291
314 313 313 318 319 317 314 318 318 317 322 324 326 327 327 325 324 321 325 324 323 321 318 323 320 318 313 308 307 307 304 299 293 288 284 282 280 280 282 283 284 287 291 293
313 312 318 318 318 318 318 321 322 321 324 327 327 329 330 328 325 323 324 326 325 320 321 321 319 314 312 311 307 302 297 293 290 288 284 282 278 276 276 277 279 288 295 297
315 318 319 319 321 320 318 323 323 321 324 327 329 331 332 329 326 326 323 329 329 321 321 316 311 312 312 310 308 304 300 295 289 285 281 277 273 268 265 265 275 285 301 303
314 318 317 319 319 318 318 321 322 321 325 327 328 331 335 330 326 328 327 334 332 334 330 323 320 318 316 315 311 303 297 293 292 288 278 269 261 252 247 252 266 292 306 305
311 314 318 320 317 317 319 321 324 323 326 330 332 333 337 331 329 329 333 335 332 331 322 322 324 321 316 315 309 308 304 300 292 283 267 252 242 227 227 228 260 310 243 189
309 312 317 320 317 318 320 324 325 326 329 333 333 336 340 332 330 331 335 334 332 329 326 325 325 325 326 325 323 320 316 307 296 284 267 251 220 197 179 172 172 158 165 123
307 312 317 317 317 320 320 324 324 328 329 333 334 338 340 332 331 334 338 333 332 327 327 328 329 332 332 333 334 337 337 330 325 317 245 197 173 155 144 132 134 125 120 120
307 311 314 316 318 320 322 324 326 328 330 334 334 338 339 333 333 337 339 333 331 331 331 332 335 335 336 345 351 353 359 16 46 85 123 142 142 129 124 129 125 125 118 121
303 308 313 314 317 318 321 323 327 329 330 333 335 337 338 336 335 339 338 335 335 335 334 337 341 338 348 360 5 21 39 58 93 115 127 128 122 122 125 125 122 123 119 122
300 306 309 312 315 317 319 322 325 328 330 333 335 336 338 337 336 339 339 337 336 339 344 349 346 349 7 18 34 54 77 99 114 120 119 116 118 120 124 127 127 126 125 125
Height
10836 10830 10824 10820 10817 10814 10811 10809 10807 10806 10802 10799 10798 10796 10793 10792 10790 10787 10785 10783 10780 10777 10774 10770 10764 10759 10754 10750 10745 10741 10740 10738 10738 10737 10738 10740 10740 10740 10742 10745 10749 10751 10754 10755
10829 10821 10815 10811 10808 10806 10803 10801 10799 10798 10795 10792 10789 10787 10784 10781 10780 10777 10773 10769 10765 10760 10755 10750 10746 10739 10734 10728 10724 10723 10720 10717 10715 10714 10714 10715 10717 10717 10718 10719 10720 10721 10724 10727
10821 10814 10809 10805 10801 10797 10795 10793 10792 10790 10788 10785 10782 10779 10775 10769 10766 10763 10758 10753 10749 10744 10737 10730 10723 10719 10713 10708 10702 10697 10695 10693 10692 10690 10690 10692 10693 10694 10694 10697 10697 10698 10700 10703
10813 10806 10802 10799 10794 10791 10788 10787 10785 10783 10781 10777 10775 10767 10768 10755 10754 10750 10745 10739 10733 10726 10717 10710 10702 10694 10687 10679 10674 10672 10668 10666 10664 10663 10663 10667 10665 10667 10668 10670 10674 10674 10673 10676
10806 10800 10795 10791 10787 10785 10783 10781 10779 10776 10773 10770 10767 10760 10753 10747 10737 10734 10728 10721 10713 10705 10698 10690 10681 10674 10667 10661 10652 10642 10635 10634 10634 10633 10634 10636 10638 10638 10641 10642 10646 10648 10647 10650
10797 10793 10788 10784 10780 10779 10777 10775 10772 10769 10765 10761 10755 10749 10737 10736 10724 10718 10709 10700 10693 10684 10676 10667 10658 10648 10640 10631 10624 10618 10612 10605 10599 10598 10600 10602 10604 10607 10611 10614 10616 10617 10621 10621
10792 10784 10781 10778 10774 10772 10770 10768 10765 10761 10758 10751 10746 10738 10730 10719 10713 10700 10691 10681 10672 10662 10652 10641 10631 10621 10612 10603 10593 10586 10579 10576 10571 10571 10571 10572 10575 10577 10579 10582 10582 10588 10589 10592
10784 10778 10774 10771 10768 10766 10763 10760 10757 10753 10747 10739 10732 10726 10713 10705 10695 10685 10674 10662 10652 10641 10628 10617 10605 10596 10587 10580 10572 10564 10558 10553 10546 10542 10543 10543 10547 10548 10550 10553 10556 10559 10560 10561
10776 10771 10766 10763 10760 10758 10755 10751 10747 10743 10736 10728 10720 10712 10704 10694 10683 10670 10657 10647 10634 10623 10610 10596 10582 10571 10562 10554 10549 10544 10539 10532 10526 10520 10517 10516 10518 10520 10522 10526 10531 10532 10532 10533
10767 10763 10759 10754 10752 10749 10747 10743 10739 10734 10725 10720 10706 10695 10684 10676 10666 10653 10640 10626 10613 10598 10582 10569 10557 10548 10540 10533 10526 10520 10513 10507 10502 10499 10496 10495 10495 10495 10499 10503 10506 10507 10508 10507
10757 10754 10750 10748 10743 10741 10738 10733 10727 10720 10712 10702 10699 10680 10673 10659 10645 10631 10617 10605 10588 10572 10556 10543 10533 10524 10517 10512 10505 10498 10493 10487 10484 10480 10477 10476 10475 10475 10477 10480 10481 10485 10487 10487
10749 10745 10743 10740 10736 10732 10728 10724 10717 10709 10701 10691 10681 10672 10660 10646 10630 10614 10600 10580 10565 10548 10534 10523 10510 10501 10494 10491 10487 10482 10478 10475 10471 10467 10465 10464 10462 10461 10460 10463 10464 10464 10465 10466
10742 10739 10735 10732 10728 10723 10719 10714 10705 10698 10688 10675 10666 10651 10643 10627 10612 10597 10579 10562 10546 10531 10519 10508 10491 10484 10479 10476 10475 10471 10469 10467 10463 10460 10457 10456 10453 10452 10451 10450 10450 10450 10450 10449
10734 10732 10728 10724 10720 10715 10709 10703 10694 10686 10676 10667 10652 10642 10624 10606 10589 10574 10561 10548 10531 10514 10501 10490 10480 10473 10471 10469 10466 10463 10461 10459 10455 10453 10451 10450 10448 10446 10444 10443 10442 10440 10439 10437
10728 10724 10720 10716 10711 10704 10698 10691 10682 10675 10665 10654 10641 10626 10613 10596 10578 10562 10550 10537 10521 10507 10492 10483 10474 10468 10466 10463 10459 10456 10454 10453 10450 10446 10444 10443 10441 10439 10437 10435 10434 10432 10428 10426
10721 10716 10711 10707 10702 10695 10687 10680 10671 10662 10653 10642 10629 10614 10598 10582 10562 10547 10537 10526 10507 10494 10482 10475 10469 10466 10462 10458 10453 10448 10446 10442 10439 10435 10433 10432 10431 10428 10427 10425 10423 10422 10419 10414
10712 10708 10703 10698 10692 10685 10677 10669 10660 10649 10641 10632 10620 10605 10589 10572 10552 10531 10523 10512 10497 10482 10473 10467 10462 10459 10455 10450 10444 10437 10433 10428 10425 10422 10420 10419 10418 10416 10415 10415 10413 10413 10409 10404
10705 10700 10696 10691 10684 10676 10666 10659 10650 10639 10630 10620 10608 10595 10577 10559 10541 10523 10509 10500 10486 10473 10465 10460 10457 10451 10446 10440 10433 10426 10420 10414 10408 10404 10402 10402 10401 10402 10402 10404 10403 10403 10400 10396
10698 10693 10689 10683 10675 10667 10659 10651 10642 10633 10621 10611 10599 10585 10568 10550 10532 10514 10499 10489 10479 10469 10461 10456 10451 10444 10436 10428 10417 10408 10401 10395 10389 10386 10385 10386 10385 10388 10391 10395 10397 10397 10395 10389
10690 10685 10680 10675 10668 10661 10651 10643 10635 10625 10618 10606 10594 10578 10558 10540 10526 10511 10494 10479 10468 10460 10454 10447 10441 10433 10423 10411 10400 10390 10382 10376 10372 10370 10369 10371 10373 10377 10383 10388 10391 10392 10389 10385
10681 10676 10670 10665 10659 10651 10643 10634 10626 10615 10606 10593 10579 10565 10548 10528 10512 10502 10488 10471 10462 10457 10449 10440 10431 10421 10410 10397 10384 10376 10369 10364 10360 10358 10358 10360 10364 10370 10377 10383 10387 10387 10385 10383
10673 10667 10661 10655 10648 10642 10631 10625 10615 10605 10594 10584 10571 10555 10539 10520 10507 10493 10478 10467 10457 10448 10439 10430 10419 10407 10394 10383 10373 10365 10359 10355 10352 10351 10352 10355 10360 10367 10375 10381 10384 10384 10384 10382
10664 10658 10652 10645 10639 10632 10624 10616 10608 10600 10588 10576 10561 10547 10531 10514 10501 10486 10471 10459 10450 10442 10432 10421 10409 10397 10386 10377 10367 10359 10354 10351 10349 10349 10350 10354 10361 10368 10375 10380 10382 10384 10384 10384
10654 10649 10643 10636 10630 10623 10615 10607 10598 10588 10578 10567 10552 10539 10524 10507 10493 10478 10464 10454 10444 10435 10423 10410 10400 10390 10382 10374 10365 10359 10354 10351 10349 10350 10353 10358 10364 10371 10377 10381 10383 10385 10387 10389
10646 10640 10634 10627 10621 10614 10606 10597 10589 10580 10569 10558 10545 10531 10516 10501 10486 10472 10459 10448 10438 10427 10414 10404 10396 10389 10381 10374 10368 10362 10358 10356 10355 10357 10361 10366 10370 10375 10380 10384 10386 10389 10393 10396
10636 10632 10626 10620 10613 10604 10597 10589 10581 10571 10560 10549 10538 10526 10510 10496 10481 10468 10455 10445 10433 10421 10409 10400 10394 10388 10382 10377 10372 10368 10366 10364 10365 10368 10372 10374 10378 10382 10386 10388 10391 10394 10399 10403